• In Uzbekistan
  • List of Countries
  • For 7 days
  • Water Temperature
  • Satellite Maps
  • Weather Map
  • Weather Widgets
  • user-avatar
    Login

    Hourly Weather Midlothian

    Today, 19 October, Thursday

    Time Temperature Precipitation Wind Pressure Humidity
    00:00 +8°C° 0 mm 4 mps 732 mmHg 93%
    01:00 +8°C° 0 mm 4 mps 731 mmHg 94%
    02:00 +8°C° 0 mm 4 mps 731 mmHg 94%
    03:00 +8°C° 0 mm 4 mps 730 mmHg 95%
    04:00 +8°C° 0 mm 4 mps 730 mmHg 95%
    05:00 +8°C° 0 mm 4 mps 729 mmHg 95%
    06:00 +9°C° 0 mm 3 mps 729 mmHg 96%
    07:00 +9°C° 0 mm 3 mps 729 mmHg 95%
    08:00 +10°C° 0 mm 3 mps 729 mmHg 93%
    09:00 +10°C° 0 mm 3 mps 728 mmHg 92%
    10:00 +11°C° 0 mm 4 mps 728 mmHg 90%
    11:00 +12°C° 0 mm 4 mps 728 mmHg 88%
    12:00 +12°C° 0 mm 4 mps 728 mmHg 85%
    13:00 +12°C° 0.2 mm 4 mps 727 mmHg 86%
    14:00 +12°C° 0.2 mm 4 mps 727 mmHg 88%
    15:00 +12°C° 0.2 mm 4 mps 726 mmHg 89%
    16:00 +11°C° 0.7 mm 4 mps 726 mmHg 91%
    17:00 +11°C° 0.7 mm 4 mps 725 mmHg 93%
    18:00 +10°C° 0.7 mm 3 mps 724 mmHg 95%
    19:00 +10°C° 0.1 mm 3 mps 724 mmHg 96%
    20:00 +10°C° 0.1 mm 3 mps 724 mmHg 96%
    21:00 +10°C° 0.1 mm 3 mps 723 mmHg 96%
    22:00 +10°C° 0.1 mm 3 mps 723 mmHg 96%
    23:00 +10°C° 0.1 mm 3 mps 723 mmHg 96%

    Tomorrow, 20 October, Friday

    Time Temperature Precipitation Wind Pressure Humidity
    00:00 +10°C° 0.1 mm 3 mps 723 mmHg 95%
    01:00 +10°C° 1.1 mm 3 mps 722 mmHg 96%
    02:00 +10°C° 1.1 mm 3 mps 722 mmHg 96%
    03:00 +10°C° 1.1 mm 3 mps 722 mmHg 97%
    04:00 +10°C° 0.8 mm 2 mps 722 mmHg 97%
    05:00 +10°C° 0.8 mm 2 mps 722 mmHg 97%
    06:00 +11°C° 0.8 mm 1 mps 723 mmHg 97%
    07:00 +11°C° 0.1 mm 1 mps 723 mmHg 96%
    08:00 +10°C° 0.1 mm 2 mps 724 mmHg 95%
    09:00 +12°C° 0.1 mm 2 mps 724 mmHg 94%
    10:00 +12°C° 0 mm 2 mps 725 mmHg 92%
    11:00 +13°C° 0 mm 2 mps 725 mmHg 90%
    12:00 +13°C° 0 mm 2 mps 725 mmHg 88%
    13:00 +13°C° 0 mm 2 mps 726 mmHg 88%
    14:00 +13°C° 0 mm 2 mps 726 mmHg 87%
    15:00 +12°C° 0 mm 3 mps 727 mmHg 87%
    16:00 +11°C° 0 mm 3 mps 727 mmHg 88%
    17:00 +11°C° 0 mm 3 mps 727 mmHg 90%
    18:00 +10°C° 0 mm 4 mps 727 mmHg 91%
    19:00 +8°C° 0 mm 4 mps 726 mmHg 91%
    20:00 +8°C° 0 mm 3 mps 726 mmHg 90%
    21:00 +7°C° 0 mm 3 mps 725 mmHg 89%
    22:00 +7°C° 0.2 mm 4 mps 725 mmHg 89%
    23:00 +7°C° 0.2 mm 5 mps 724 mmHg 90%

    Day after tomorrow, 21 October, Saturday

    Time Temperature Precipitation Wind Pressure Humidity
    00:00 +7°C° 0.2 mm 6 mps 723 mmHg 91%
    01:00 +8°C° 0.3 mm 6 mps 722 mmHg 91%
    02:00 +9°C° 0.3 mm 6 mps 721 mmHg 91%
    03:00 +9°C° 0.3 mm 7 mps 721 mmHg 92%
    04:00 +9°C° 0.1 mm 6 mps 720 mmHg 92%
    05:00 +8°C° 0.1 mm 6 mps 720 mmHg 91%
    06:00 +8°C° 0.1 mm 6 mps 719 mmHg 91%
    07:00 +8°C° 0 mm 6 mps 719 mmHg 89%
    08:00 +8°C° 0 mm 6 mps 719 mmHg 87%
    09:00 +8°C° 0 mm 7 mps 718 mmHg 85%
    10:00 +9°C° 0 mm 7 mps 718 mmHg 84%
    11:00 +9°C° 0 mm 7 mps 718 mmHg 83%
    12:00 +9°C° 0 mm 7 mps 717 mmHg 82%
    13:00 +9°C° 0.4 mm 7 mps 717 mmHg 84%
    14:00 +9°C° 0.4 mm 6 mps 716 mmHg 86%
    15:00 +9°C° 0.4 mm 6 mps 716 mmHg 87%
    16:00 +8°C° 0.3 mm 5 mps 716 mmHg 90%
    17:00 +8°C° 0.3 mm 4 mps 716 mmHg 92%
    18:00 +8°C° 0.3 mm 3 mps 716 mmHg 94%
    19:00 +8°C° 0.2 mm 3 mps 716 mmHg 95%
    20:00 +8°C° 0.2 mm 3 mps 717 mmHg 95%
    21:00 +8°C° 0.2 mm 3 mps 717 mmHg 95%
    22:00 +7°C° 0.1 mm 4 mps 718 mmHg 95%
    23:00 +8°C° 0.1 mm 4 mps 718 mmHg 94%

    22 October, Sunday

    Time Temperature Precipitation Wind Pressure Humidity
    00:00 +8°C° 0.1 mm 5 mps 719 mmHg 93%
    01:00 +8°C° 0.1 mm 5 mps 719 mmHg 92%
    02:00 +7°C° 0.1 mm 6 mps 720 mmHg 91%
    03:00 +7°C° 0.1 mm 6 mps 721 mmHg 90%
    04:00 +6°C° 0 mm 7 mps 721 mmHg 90%
    05:00 +6°C° 0 mm 7 mps 722 mmHg 90%
    06:00 +6°C° 0 mm 8 mps 722 mmHg 90%
    07:00 +6°C° 0 mm 8 mps 723 mmHg 88%
    08:00 +7°C° 0 mm 8 mps 724 mmHg 87%
    09:00 +7°C° 0 mm 8 mps 725 mmHg 86%
    10:00 +9°C° 0 mm 8 mps 725 mmHg 85%
    11:00 +9°C° 0 mm 7 mps 726 mmHg 83%
    12:00 +9°C° 0 mm 7 mps 727 mmHg 82%
    13:00 +9°C° 0 mm 7 mps 727 mmHg 82%
    14:00 +10°C° 0 mm 7 mps 728 mmHg 81%
    15:00 +10°C° 0 mm 8 mps 729 mmHg 81%
    16:00 +9°C° 0 mm 8 mps 729 mmHg 82%
    17:00 +9°C° 0 mm 8 mps 730 mmHg 83%
    18:00 +7°C° 0 mm 8 mps 731 mmHg 84%
    19:00 +7°C° 0 mm 8 mps 732 mmHg 85%
    20:00 +6°C° 0 mm 7 mps 732 mmHg 85%
    21:00 +6°C° 0 mm 7 mps 733 mmHg 86%
    22:00 +7°C° 0 mm 6 mps 733 mmHg 88%
    23:00 +5°C° 0 mm 6 mps 733 mmHg 89%

    23 October, Monday

    Time Temperature Precipitation Wind Pressure Humidity
    00:00 +6°C° 0 mm 5 mps 733 mmHg 91%
    01:00 +7°C° 0.1 mm 5 mps 733 mmHg 91%
    02:00 +7°C° 0.1 mm 4 mps 733 mmHg 92%
    03:00 +8°C° 0.1 mm 4 mps 733 mmHg 93%
    04:00 +8°C° 0.1 mm 4 mps 733 mmHg 94%
    05:00 +10°C° 0.1 mm 4 mps 733 mmHg 94%
    06:00 +11°C° 0.1 mm 4 mps 733 mmHg 95%
    07:00 +11°C° 0 mm 4 mps 733 mmHg 93%
    08:00 +11°C° 0 mm 4 mps 733 mmHg 92%
    09:00 +11°C° 0 mm 4 mps 733 mmHg 90%
    10:00 +11°C° 0 mm 3 mps 733 mmHg 89%
    11:00 +11°C° 0 mm 3 mps 734 mmHg 88%
    12:00 +12°C° 0 mm 2 mps 734 mmHg 87%
    13:00 +12°C° 0.8 mm 2 mps 733 mmHg 90%
    14:00 +12°C° 0.8 mm 2 mps 733 mmHg 92%
    15:00 +12°C° 0.8 mm 2 mps 733 mmHg 95%
    16:00 +12°C° 0.3 mm 2 mps 733 mmHg 95%
    17:00 +12°C° 0.3 mm 2 mps 733 mmHg 95%
    18:00 +12°C° 0.3 mm 2 mps 733 mmHg 95%
    19:00 +12°C° 0 mm 2 mps 733 mmHg 95%
    20:00 +10°C° 0 mm 2 mps 734 mmHg 95%
    21:00 +9°C° 0 mm 2 mps 734 mmHg 96%
    22:00 +9°C° 0 mm 2 mps 734 mmHg 95%
    23:00 +9°C° 0 mm 3 mps 734 mmHg 95%

    24 October, Tuesday

    Time Temperature Precipitation Wind Pressure Humidity
    00:00 +9°C° 0 mm 3 mps 734 mmHg 95%
    01:00 +10°C° 0.2 mm 4 mps 734 mmHg 93%
    02:00 +9°C° 0.2 mm 5 mps 733 mmHg 92%
    03:00 +10°C° 0.2 mm 6 mps 733 mmHg 91%
    04:00 +11°C° 0.2 mm 7 mps 732 mmHg 91%
    05:00 +12°C° 0.2 mm 7 mps 732 mmHg 92%
    06:00 +14°C° 0.2 mm 7 mps 732 mmHg 92%
    07:00 +12°C° 0.3 mm 7 mps 733 mmHg 92%
    08:00 +13°C° 0.3 mm 6 mps 733 mmHg 91%
    09:00 +13°C° 0.3 mm 6 mps 733 mmHg 91%
    10:00 +13°C° 0 mm 6 mps 734 mmHg 88%
    11:00 +13°C° 0 mm 5 mps 734 mmHg 85%
    12:00 +13°C° 0 mm 5 mps 734 mmHg 82%
    13:00 +12°C° 0.4 mm 5 mps 735 mmHg 84%
    14:00 +11°C° 0.4 mm 4 mps 735 mmHg 86%
    15:00 +10°C° 0.4 mm 4 mps 735 mmHg 88%
    16:00 +10°C° 0.1 mm 4 mps 735 mmHg 90%
    17:00 +10°C° 0.1 mm 4 mps 735 mmHg 91%
    18:00 +9°C° 0.1 mm 3 mps 735 mmHg 93%
    19:00 +8°C° 0 mm 4 mps 736 mmHg 94%
    20:00 +8°C° 0 mm 4 mps 736 mmHg 94%
    21:00 +8°C° 0 mm 4 mps 737 mmHg 95%
    22:00 +8°C° 0 mm 4 mps 737 mmHg 95%
    23:00 +7°C° 0 mm 4 mps 737 mmHg 95%
    Show more